DTUSAT

Satellite information

Favourite Embed

Satellite Type and Status

PAYLOADIN ORBIT

Key statistics

Satellite DTUSAT at a glance.

Uptime

8101

Days in orbit

Revolutions

≈ 14.2

Per day

Orbit

SSO

Sun Synchronous Orbit

Inclination

98.7

Latest

Satellite identification and parameters

Extended collection of information and parameters for DTUSAT.

Object identification

Identified? True

Debris? False

Object name: DTUSAT

International designator: 2003-031C

Object number (NORAD): 27842

Object ID (CCSDS): 27842

Country: DENMARK (DEN)

Current information (Y/N): Y

RCS size: SMALL

Orbital parameters

Period: 101.144 minutes

Inclination: 98.6895 deg

SMA: 7190.972 km

Apoapsis: 818.657 km

Periapsis: 807.018 km

RAAN: 252.8656 deg

Eccentricy: 0.00080927

Argument of periapsis: 277.3281 deg

Mean anomaly: 82.6978 deg

Mean motion: 14.23709334 rev/day

Mean motion (dot): 0.00000535 rev/day2

B* drag term: 0.00025353293 1/REarth

Two-line elements (TLE)

Creation date: Sept. 3, 2025, 2:21 a.m.

Reference frame: TEME

Reference center: EARTH

Epoch: Sept. 2, 2025, 11:07 p.m. UTC

TLE line 0: 0 DTUSAT

TLE line 1: 1 27842U 03031C 25245.96371733 .00000535 00000-0 25353-3 0 9991

TLE line 2: 2 27842 98.6895 252.8656 0008093 277.3281 82.6978 14.23709334150949

Live tracking on map

Real-time ground track for satellite DTUSAT.

In-orbit conjunctions

A list of the most updated potential collisions computed for object DTUSAT.

Target Orbit TCA Probability of collision Miss distance Type
FENGYUN 1C DEB SSO 2025-09-03 16:43:49 0.0005949589 278.0 (m) DEBRIS
DELTA 1 DEB SSO 2025-05-29 18:26:31 0.002524826 126.0 (m) DEBRIS
CZ-6A DEB LEO 2025-05-28 19:33:04 0.0003517498 642.0 (m) DEBRIS
PEGASUS DEB LEO 2025-05-22 23:05:39 0.0002184941 305.0 (m) DEBRIS
DMSP 5D-2 F13 DEB SSO 2025-04-23 02:45:26 0.0001379523 485.0 (m) DEBRIS

Associated space launch

MIMOSA (Micro Measurements Of Satellite Acceleration) is a microsatellite to measure atmospheric drag.

DTUSAT was lifted into orbit during the mission ‘Rokot / Briz-KM | Mimosa’, on board a Rokot/Briz-KM space rocket.

The launch took place on June 30, 2003, 2:15 p.m. from 133/3 (133L).

For more information about the launch, click the button.

Launch to space Rokot / Briz-KM | Mimosa
Rokot / Briz-KM | Mimosa

Agency: N/A

Status: Launch Successful

Launch date: June 30, 2003, 2:15 p.m. UTC

Rocket: Rokot/Briz-KM

Launch pad: 133/3 (133L)

Location: Plesetsk Cosmodrome, Russian Federation

...

Latest news about this satellite

There are no fresh news available about this satellite. Check back as we update our databases every day.


Newsletter sign-up

Weekly statistics, charts and insights to help you stay on top of the space industry.